Нюхча

Россия / Архангельская область     63°26′31″N   46°31′33″E
темп.,
°C
ветер,
м/с
пор.,
м/с
влажн.,
%
обл.,
%
осадки,
мм/ч
давл.,
гПа
погр.,
м
25 июля, вс
вс2500:00+6з3109879 0.0 1010288
03:00+7зюз2896100 0.0 1010300
06:00+8зюз2889100 0.0 1010292
09:00+14з475187 0.0 10101331
12:00+13зюз485469 0.0 10111173
15:00+17зюз6949100 0.0 10112020
18:00+15зюз3861100 0.0 1012718
21:00+10з26975 0.4 1013134
26 июля, пн
пн2600:00+9ссв249656 0.0 1014129
03:00+7сз119449 0.0 101410
06:00+10з238286 0.0 1014217
09:00+11юз467399 0.1 1013537
12:00+12зюз467674 0.1 1013753
15:00+11зсз378725 0.6 1013676
18:00+13ссз586351 0.7 10141331
21:00+8сз387092 0.7 1015251
27 июля, вт
вт2700:00+6зсз31280100 0.0 1016440
03:00+8зсз51174100 0.0 1016760
06:00+9сз61175100 0.0 1016997
09:00+12сз595855 0.0 10151406
12:00+15сз61045100 0.0 10151855
15:00+15сз61146100 0.0 10151677
18:00+13ссз5125272 0.0 10141521
21:00+8с37680 0.0 1015206
28 июля, ср
ср2800:00+4ссз22935 0.0 101631
03:00+3зсз25977 0.0 1015113
06:00+7сз257583 0.0 1014329
09:00+12зсз3550100 0.0 1012799
12:00+9св2294100 2.3 1010128
15:00+11юз2592100 4.5 1008484
18:00+10юз1297100 0.6 1007138
21:00+8св119848 0.6 100710
29 июля, чт
чт2900:00+9св119467 0.0 100611
03:00+7с11965 0.0 100512
06:00+9всв1192100 0.0 1005128
09:00+14сз016841 0.0 1005899
12:00+18ююз124688 0.0 10041276
15:00+17ююз1353100 0.0 1003595
18:00+18юв345244 0.0 1001884
21:00+13ююв2479100 0.0 100069